Cloud_Cover
4 40 91 100 100 100 100 100 100 100 100 100 100 100 100 100 100 100 100 100 100 99 96 100 100 100 100 100 100 100 100 100 100 100 100 100 100 98 100 100 98 74 14 86
1 0 82 100 100 100 100 100 100 100 100 100 100 100 100 100 100 100 100 100 100 100 100 100 100 100 100 100 100 100 100 100 100 100 98 100 100 100 100 100 100 98 94 87
0 0 27 100 100 100 100 100 100 100 100 100 100 100 100 100 100 100 100 100 100 100 100 100 100 100 100 100 100 93 100 99 100 100 80 100 100 100 100 91 100 100 100 100
36 4 1 6 100 100 100 100 100 100 100 100 100 100 100 100 98 100 100 100 100 100 100 100 100 100 100 100 99 99 100 100 100 100 100 100 100 100 100 100 100 100 100 100
7 2 4 2 27 100 100 100 100 100 100 100 100 100 100 100 100 100 100 100 100 100 100 100 100 100 100 100 100 100 100 100 100 100 100 100 100 100 100 100 100 100 100 100
17 23 0 0 0 58 100 100 100 100 100 28 83 96 100 100 100 100 100 100 100 100 100 100 100 100 100 100 100 100 100 100 100 100 100 100 100 100 100 100 100 100 100 100
5 8 4 0 0 0 30 100 100 100 100 87 100 66 95 100 100 100 100 100 100 100 100 100 100 100 100 100 100 100 100 100 100 100 100 100 100 100 100 100 99 100 100 98
100 99 100 88 3 0 5 6 94 100 99 96 100 100 80 100 100 100 100 100 100 100 100 100 100 100 100 100 100 100 100 100 100 100 100 100 100 100 96 97 97 99 98 95
100 79 64 100 100 97 6 3 0 3 100 96 92 74 100 100 100 100 100 40 8 36 97 100 100 100 100 100 100 100 100 100 100 100 100 100 79 40 57 80 96 100 100 100
100 100 100 100 100 100 11 4 0 3 8 100 96 95 100 100 100 100 100 100 100 100 83 80 99 100 100 100 100 100 100 100 100 100 100 65 79 87 100 100 100 100 100 97
100 100 100 100 83 97 100 26 3 0 0 0 9 19 100 100 100 100 100 100 100 100 100 100 98 100 100 100 100 100 100 92 83 58 80 100 100 100 100 100 100 100 100 99
100 100 100 100 100 100 100 100 100 68 0 3 1 86 100 100 100 100 100 100 100 100 100 99 47 18 56 53 65 70 83 100 100 100 99 100 100 100 100 100 100 100 99 100
69 74 100 100 100 98 96 100 100 66 5 0 0 0 0 89 100 100 100 100 100 100 100 100 100 48 35 40 69 97 100 100 100 100 100 100 100 100 99 100 100 100 100 100
100 65 40 19 42 74 100 100 100 100 98 0 0 0 0 0 8 90 100 100 100 100 77 60 94 100 100 55 86 97 100 100 100 77 98 94 94 74 95 100 100 100 100 100
100 100 80 13 97 100 100 100 100 100 99 93 65 0 0 0 0 0 0 40 100 100 100 100 100 100 100 100 100 96 100 99 72 85 73 44 61 81 100 100 100 100 100 80
100 100 100 100 100 100 100 100 100 73 29 27 32 8 0 5 5 0 0 0 4 52 100 100 100 100 100 100 100 100 100 75 38 58 62 34 47 100 100 80 36 44 84 47
100 98 56 100 100 95 100 100 100 94 95 18 6 91 98 16 31 10 2 0 0 0 11 99 100 100 100 100 100 100 100 100 98 27 34 8 5 5 5 5 5 5 5 5
100 100 100 92 100 100 99 100 100 100 100 100 100 100 100 100 100 100 6 5 0 0 0 38 100 100 100 100 100 100 100 100 100 100 100 99 84 4 0 0 0 2 2 1
100 100 100 100 100 100 100 99 85 100 100 100 100 100 100 100 100 100 100 99 58 5 2 0 96 100 100 100 100 100 100 100 100 94 48 4 0 0 0 0 0 0 0 0
100 100 100 100 100 100 90 100 100 100 99 100 100 100 100 100 95 95 100 100 100 98 5 5 5 97 100 96 97 100 82 100 53 5 2 4 5 0 0 0 0 0 0 0
100 100 100 100 100 78 14 100 100 100 87 100 100 100 100 50 92 100 100 99 100 100 100 87 7 17 71 6 5 24 40 62 24 5 5 5 5 5 0 0 0 0 0 0
100 100 100 100 100 91 69 84 100 32 12 100 100 100 100 100 97 100 100 100 100 100 100 100 100 71 100 99 100 100 64 64 47 13 14 70 20 5 5 0 0 0 0 0
100 100 20 100 100 8 87 100 100 100 100 100 100 100 100 100 100 100 95 99 100 100 100 100 100 99 100 100 100 100 100 100 100 99 100 100 78 50 7 5 5 5 1 12
84 59 100 100 100 47 20 100 100 100 100 100 99 100 100 100 100 100 100 100 100 100 100 100 100 100 100 100 100 100 100 100 74 93 100 100 75 39 6 5 5 6 6 36
0 75 100 100 92 32 53 84 92 94 77 100 100 85 100 100 100 88 100 100 92 100 100 100 100 100 100 100 100 100 100 100 100 79 99 72 92 100 73 66 90 98 39 8
0 0 98 95 4 1 3 100 99 17 2 5 99 100 100 100 82 100 50 26 91 99 100 100 100 100 100 100 100 100 100 100 100 99 100 100 100 91 100 100 100 100 72 57